Tracking 35280 objects as of 7-Sep-2026
HD Live streaming from Space Station
objects crossing your sky now

STARLINK-4041

Track STARLINK-4041 now!
10-day predictions
STARLINK-4041 is classified as:


NORAD ID: 52695
Int'l Code: 2022-053AR
Launch date: May 18, 2022
Source: United States (US)
Launch site: AIR FORCE EASTERN TEST RANGE (AFETR)
Your satellite tracking list
Your tracking list is empty




NASA's NSSDC Master Catalog

Two Line Element Set (TLE):
1 52695U 22053AR  26249.72393712  .00000858  00000-0  71997-4 0  9994
2 52695  53.1605  55.6416 0001430  94.2603 265.8552 15.08838133238420
Source of the keplerian elements: AFSPC